Time,TemperatureF,DewpointF,PressureIn,WindDirection,WindDirectionDegrees,WindSpeedMPH,WindSpeedGustMPH,Humidity,HourlyPrecipIn,Conditions,Clouds,dailyrainin,SolarRadiationWatts/m^2,SoftwareType,DateUTC
2013-04-10 00:00:00,62.8,60.1,30.10,NNE,19,0.0,0.0,91,0.00,FEW,,0.00,0.0,WeatherDisplay:10.37,2013-04-10 04:00:00,
2013-04-10 00:01:00,62.7,60.0,30.10,NNE,19,0.0,0.0,91,0.00,FEW,,0.00,0.0,WeatherDisplay:10.37,2013-04-10 04:01:00,
2013-04-10 00:06:00,62.2,59.5,30.10,NNE,19,0.0,0.0,91,0.00,FEW,,0.00,0.0,WeatherDisplay:10.37,2013-04-10 04:06:00,
2013-04-10 00:12:00,61.8,59.1,30.10,NNE,19,0.0,0.0,91,0.00,FEW,,0.00,0.0,WeatherDisplay:10.37,2013-04-10 04:12:00,
2013-04-10 00:17:00,61.9,59.5,30.09,NNE,19,0.0,0.0,92,0.00,FEW,,0.00,0.0,WeatherDisplay:10.37,2013-04-10 04:17:00,
2013-04-10 00:22:00,62.0,59.6,30.09,NNE,19,0.0,0.0,92,0.00,FEW,,0.00,0.0,WeatherDisplay:10.37,2013-04-10 04:22:00,
2013-04-10 00:27:00,61.7,59.0,30.09,NNE,19,0.0,0.0,91,0.00,FEW,,0.00,0.0,WeatherDisplay:10.37,2013-04-10 04:27:00,
2013-04-10 00:32:00,61.3,58.7,30.09,NNE,19,0.0,0.0,91,0.00,FEW,,0.00,0.0,WeatherDisplay:10.37,2013-04-10 04:32:00,
2013-04-10 00:37:00,61.3,59.0,30.09,NNE,19,0.0,0.0,92,0.00,FEW,,0.00,0.0,WeatherDisplay:10.37,2013-04-10 04:37:00,
2013-04-10 00:42:00,61.3,59.0,30.09,NNE,19,0.0,0.0,92,0.00,FEW,,0.00,0.0,WeatherDisplay:10.37,2013-04-10 04:42:00,
2013-04-10 00:47:00,61.0,58.7,30.09,NNE,19,0.0,0.0,92,0.00,FEW,,0.00,0.0,WeatherDisplay:10.37,2013-04-10 04:47:00,
2013-04-10 00:52:00,60.9,58.6,30.09,NNE,19,0.0,0.0,92,0.00,FEW,,0.00,0.0,WeatherDisplay:10.37,2013-04-10 04:52:00,
2013-04-10 00:57:00,60.8,58.5,30.09,NNE,19,0.0,0.0,92,0.00,FEW,,0.00,0.0,WeatherDisplay:10.37,2013-04-10 04:57:00,
2013-04-10 01:02:00,60.5,58.2,30.08,NNE,19,0.0,0.0,92,0.00,FEW,,0.00,0.0,WeatherDisplay:10.37,2013-04-10 05:02:00,
2013-04-10 01:07:00,60.4,58.1,30.08,NNE,19,0.0,0.0,92,0.00,FEW,,0.00,0.0,WeatherDisplay:10.37,2013-04-10 05:07:00,
2013-04-10 01:12:00,60.2,57.9,30.08,NNE,19,0.0,0.0,92,0.00,FEW,,0.00,0.0,WeatherDisplay:10.37,2013-04-10 05:12:00,
2013-04-10 01:17:00,60.2,58.2,30.07,NNE,19,0.0,0.0,93,0.00,FEW,,0.00,0.0,WeatherDisplay:10.37,2013-04-10 05:17:00,
2013-04-10 01:22:00,60.2,58.2,30.07,NNE,19,0.0,0.0,93,0.00,FEW,,0.00,0.0,WeatherDisplay:10.37,2013-04-10 05:22:00,
2013-04-10 01:28:00,60.1,57.8,30.07,NNE,19,0.0,0.0,92,0.00,FEW,,0.00,0.0,WeatherDisplay:10.37,2013-04-10 05:28:00,
2013-04-10 01:33:00,59.8,57.8,30.07,NNE,19,0.0,0.0,93,0.00,FEW,,0.00,0.0,WeatherDisplay:10.37,2013-04-10 05:33:00,
2013-04-10 01:38:00,59.8,57.8,30.07,NNE,19,0.0,0.0,93,0.00,FEW,,0.00,0.0,WeatherDisplay:10.37,2013-04-10 05:38:00,
2013-04-10 01:43:00,59.6,57.6,30.07,NNE,19,0.0,0.0,93,0.00,FEW,,0.00,0.0,WeatherDisplay:10.37,2013-04-10 05:43:00,
2013-04-10 01:48:00,59.4,57.4,30.07,NNE,19,0.0,0.0,93,0.00,FEW,,0.00,0.0,WeatherDisplay:10.37,2013-04-10 05:48:00,
2013-04-10 01:53:00,59.5,57.5,30.07,NNE,19,0.0,0.0,93,0.00,FEW,,0.00,0.0,WeatherDisplay:10.37,2013-04-10 05:53:00,
2013-04-10 01:58:00,59.5,57.5,30.07,NNE,19,0.0,0.0,93,0.00,FEW,,0.00,0.0,WeatherDisplay:10.37,2013-04-10 05:58:00,
2013-04-10 02:03:00,59.2,57.2,30.06,NNE,19,0.0,0.0,93,0.00,FEW,,0.00,0.0,WeatherDisplay:10.37,2013-04-10 06:03:00,
2013-04-10 02:08:00,59.1,57.1,30.06,NNE,19,0.0,0.0,93,0.00,FEW,,0.00,0.0,WeatherDisplay:10.37,2013-04-10 06:08:00,
2013-04-10 02:13:00,58.9,56.9,30.06,NNE,19,0.0,0.0,93,0.00,FEW,,0.00,0.0,WeatherDisplay:10.37,2013-04-10 06:13:00,
2013-04-10 02:18:00,58.9,56.9,30.06,NNE,19,0.0,0.0,93,0.00,FEW,,0.00,0.0,WeatherDisplay:10.37,2013-04-10 06:18:00,
2013-04-10 02:23:00,58.8,56.8,30.06,NNE,19,0.0,0.0,93,0.00,FEW,,0.00,0.0,WeatherDisplay:10.37,2013-04-10 06:23:00,
2013-04-10 02:28:00,58.7,56.7,30.06,NNE,19,0.0,0.0,93,0.00,FEW,,0.00,0.0,WeatherDisplay:10.37,2013-04-10 06:28:00,
2013-04-10 02:33:00,58.7,56.7,30.05,NNE,19,0.0,0.0,93,0.00,FEW,,0.00,0.0,WeatherDisplay:10.37,2013-04-10 06:33:00,
2013-04-10 02:38:00,58.5,56.5,30.05,NNE,19,0.0,0.0,93,0.00,FEW,,0.00,0.0,WeatherDisplay:10.37,2013-04-10 06:38:00,
2013-04-10 02:43:00,58.4,56.4,30.05,NNE,19,0.0,0.0,93,0.00,FEW,,0.00,0.0,WeatherDisplay:10.37,2013-04-10 06:43:00,
2013-04-10 02:48:00,58.3,56.3,30.05,NNE,19,0.0,0.0,93,0.00,FEW,,0.00,0.0,WeatherDisplay:10.37,2013-04-10 06:48:00,
2013-04-10 02:53:00,58.4,56.4,30.05,NNE,19,0.0,0.0,93,0.00,FEW,,0.00,0.0,WeatherDisplay:10.37,2013-04-10 06:53:00,
2013-04-10 02:58:00,58.5,56.8,30.05,NNE,19,0.0,0.0,94,0.00,FEW,,0.00,0.0,WeatherDisplay:10.37,2013-04-10 06:58:00,
2013-04-10 03:03:00,58.0,56.0,30.05,NNE,19,0.0,0.0,93,0.00,FEW,,0.00,0.0,WeatherDisplay:10.37,2013-04-10 07:03:00,
2013-04-10 03:08:00,57.6,55.6,30.05,NNE,19,0.0,0.0,93,0.00,FEW,,0.00,0.0,WeatherDisplay:10.37,2013-04-10 07:08:00,
2013-04-10 03:13:00,57.3,55.3,30.05,NNE,19,0.0,0.0,93,0.00,FEW,,0.00,0.0,WeatherDisplay:10.37,2013-04-10 07:13:00,
2013-04-10 03:18:00,57.6,55.9,30.05,NNE,19,0.0,0.0,94,0.00,FEW,,0.00,0.0,WeatherDisplay:10.37,2013-04-10 07:18:00,
2013-04-10 03:23:00,57.7,56.0,30.05,NNE,19,0.0,0.0,94,0.00,FEW,,0.00,0.0,WeatherDisplay:10.37,2013-04-10 07:23:00,
2013-04-10 03:28:00,57.8,56.1,30.05,NNE,19,0.0,0.0,94,0.00,FEW,,0.00,0.0,WeatherDisplay:10.37,2013-04-10 07:28:00,
2013-04-10 03:33:00,57.8,55.8,30.04,NNE,19,0.0,0.0,93,0.00,FEW,,0.00,0.0,WeatherDisplay:10.37,2013-04-10 07:33:00,
2013-04-10 03:38:00,57.3,55.3,30.04,NNE,19,0.0,0.0,93,0.00,FEW,,0.00,0.0,WeatherDisplay:10.37,2013-04-10 07:38:00,
2013-04-10 03:43:00,57.1,55.1,30.04,NNE,19,0.0,0.0,93,0.00,FEW,,0.00,0.0,WeatherDisplay:10.37,2013-04-10 07:43:00,
2013-04-10 03:48:00,57.3,55.6,30.04,NNE,19,0.0,0.0,94,0.00,FEW,,0.00,0.0,WeatherDisplay:10.37,2013-04-10 07:48:00,
2013-04-10 03:53:00,57.3,55.6,30.04,NNE,19,0.0,0.0,94,0.00,FEW,,0.00,0.0,WeatherDisplay:10.37,2013-04-10 07:53:00,
2013-04-10 03:58:00,56.9,54.9,30.04,NNE,19,0.0,0.0,93,0.00,FEW,,0.00,0.0,WeatherDisplay:10.37,2013-04-10 07:58:00,
2013-04-10 04:04:00,56.8,55.1,30.04,NNE,19,0.0,0.0,94,0.00,CLR,,0.00,0.0,WeatherDisplay:10.37,2013-04-10 08:04:00,
2013-04-10 04:09:00,57.2,55.5,30.04,NNE,19,0.0,0.0,94,0.00,CLR,,0.00,0.0,WeatherDisplay:10.37,2013-04-10 08:09:00,
2013-04-10 04:14:00,56.8,54.8,30.04,NNE,19,0.0,0.0,93,0.00,CLR,,0.00,0.0,WeatherDisplay:10.37,2013-04-10 08:14:00,
2013-04-10 04:19:00,56.9,55.2,30.04,NNE,19,0.0,0.0,94,0.00,CLR,,0.00,0.0,WeatherDisplay:10.37,2013-04-10 08:19:00,
2013-04-10 04:24:00,56.9,55.2,30.04,NNE,19,0.0,0.0,94,0.00,CLR,,0.00,0.0,WeatherDisplay:10.37,2013-04-10 08:24:00,
2013-04-10 04:29:00,56.9,55.2,30.04,NNE,19,0.0,0.0,94,0.00,CLR,,0.00,0.0,WeatherDisplay:10.37,2013-04-10 08:29:00,
2013-04-10 04:35:00,56.7,55.0,30.04,NNE,19,0.0,0.0,94,0.00,CLR,,0.00,0.0,WeatherDisplay:10.37,2013-04-10 08:35:00,
2013-04-10 04:40:00,56.6,54.9,30.04,NNE,19,0.0,0.0,94,0.00,CLR,,0.00,0.0,WeatherDisplay:10.37,2013-04-10 08:40:00,
2013-04-10 04:45:00,56.0,54.0,30.04,NNE,19,0.0,0.0,93,0.00,CLR,,0.00,0.0,WeatherDisplay:10.37,2013-04-10 08:45:00,
2013-04-10 04:50:00,55.7,53.7,30.04,NNE,19,0.0,0.0,93,0.00,CLR,,0.00,0.0,WeatherDisplay:10.37,2013-04-10 08:50:00,
2013-04-10 04:55:00,55.9,54.2,30.04,NNE,19,0.0,0.0,94,0.00,CLR,,0.00,0.0,WeatherDisplay:10.37,2013-04-10 08:55:00,
2013-04-10 05:01:00,56.0,54.3,30.04,NNE,19,0.0,0.0,94,0.00,CLR,,0.00,0.0,WeatherDisplay:10.37,2013-04-10 09:01:00,
2013-04-10 05:06:00,56.0,54.3,30.04,NNE,19,0.0,0.0,94,0.00,FEW,,0.00,0.0,WeatherDisplay:10.37,2013-04-10 09:06:00,
2013-04-10 05:11:00,56.1,54.4,30.04,NNE,19,0.0,0.0,94,0.00,FEW,,0.00,0.0,WeatherDisplay:10.37,2013-04-10 09:11:00,
2013-04-10 05:16:00,56.1,54.4,30.04,NNE,19,0.0,0.0,94,0.00,FEW,,0.00,0.0,WeatherDisplay:10.37,2013-04-10 09:16:00,
2013-04-10 05:21:00,55.6,53.9,30.04,NNE,19,0.0,0.0,94,0.00,FEW,,0.00,0.0,WeatherDisplay:10.37,2013-04-10 09:21:00,
2013-04-10 05:26:00,55.8,54.1,30.04,NNE,19,0.0,0.0,94,0.00,FEW,,0.00,0.0,WeatherDisplay:10.37,2013-04-10 09:26:00,
2013-04-10 05:31:00,55.9,54.2,30.04,NNE,19,0.0,0.0,94,0.00,FEW,,0.00,0.0,WeatherDisplay:10.37,2013-04-10 09:31:00,
2013-04-10 05:36:00,55.8,54.1,30.04,NNE,19,0.0,0.0,94,0.00,FEW,,0.00,0.0,WeatherDisplay:10.37,2013-04-10 09:36:00,
2013-04-10 05:42:00,55.5,53.8,30.04,NNE,19,0.0,0.0,94,0.00,FEW,,0.00,0.0,WeatherDisplay:10.37,2013-04-10 09:42:00,
2013-04-10 05:47:00,55.5,53.8,30.03,NNE,19,0.0,0.0,94,0.00,FEW,,0.00,0.0,WeatherDisplay:10.37,2013-04-10 09:47:00,
2013-04-10 05:52:00,55.3,53.6,30.03,NNE,19,0.0,0.0,94,0.00,FEW,,0.00,0.0,WeatherDisplay:10.37,2013-04-10 09:52:00,
2013-04-10 05:57:00,55.0,53.3,30.03,NNE,19,0.0,0.0,94,0.00,FEW,,0.00,0.0,WeatherDisplay:10.37,2013-04-10 09:57:00,
2013-04-10 06:02:00,55.2,53.5,30.03,NNE,19,0.0,0.0,94,0.00,FEW,,0.00,0.0,WeatherDisplay:10.37,2013-04-10 10:02:00,
2013-04-10 06:07:00,55.5,53.8,30.03,NNE,19,0.0,0.0,94,0.00,FEW,,0.00,0.0,WeatherDisplay:10.37,2013-04-10 10:07:00,
2013-04-10 06:12:00,55.2,53.5,30.03,NNE,19,0.0,0.0,94,0.00,FEW,,0.00,0.0,WeatherDisplay:10.37,2013-04-10 10:12:00,
2013-04-10 06:17:00,55.1,53.4,30.03,NNE,19,0.0,0.0,94,0.00,CLR,,0.00,0.0,WeatherDisplay:10.37,2013-04-10 10:17:00,
2013-04-10 06:22:00,55.1,53.4,30.03,NNE,19,0.0,0.0,94,0.00,CLR,,0.00,0.0,WeatherDisplay:10.37,2013-04-10 10:22:00,
2013-04-10 06:27:00,55.5,53.8,30.03,NNE,19,0.0,0.0,94,0.00,CLR,,0.00,0.0,WeatherDisplay:10.37,2013-04-10 10:27:00,
2013-04-10 06:32:00,55.0,53.3,30.03,NNE,19,0.0,0.0,94,0.00,CLR,,0.00,0.0,WeatherDisplay:10.37,2013-04-10 10:32:00,
2013-04-10 06:37:00,54.8,53.1,30.03,NNE,19,0.0,0.0,94,0.00,CLR,,0.00,0.0,WeatherDisplay:10.37,2013-04-10 10:37:00,
2013-04-10 06:43:00,54.9,53.2,30.03,NNE,19,0.0,0.0,94,0.00,CLR,,0.00,0.0,WeatherDisplay:10.37,2013-04-10 10:43:00,
2013-04-10 06:48:00,55.0,53.3,30.03,NNE,19,0.0,0.0,94,0.00,CLR,,0.00,0.0,WeatherDisplay:10.37,2013-04-10 10:48:00,
2013-04-10 06:53:00,55.0,53.3,30.03,NNE,19,0.0,0.0,94,0.00,CLR,,0.00,0.0,WeatherDisplay:10.37,2013-04-10 10:53:00,
2013-04-10 06:58:00,55.0,53.3,30.03,NNE,19,0.0,0.0,94,0.00,CLR,,0.00,0.0,WeatherDisplay:10.37,2013-04-10 10:58:00,
2013-04-10 07:03:00,54.8,53.1,30.03,NNE,19,0.0,0.0,94,0.00,CLR,,0.00,0.0,WeatherDisplay:10.37,2013-04-10 11:03:00,
2013-04-10 07:08:00,54.8,53.1,30.03,NNE,19,0.0,0.0,94,0.00,CLR,,0.00,5.0,WeatherDisplay:10.37,2013-04-10 11:08:00,
2013-04-10 07:13:00,54.8,53.1,30.03,NNE,19,0.0,0.0,94,0.00,CLR,,0.00,9.0,WeatherDisplay:10.37,2013-04-10 11:13:00,
2013-04-10 07:18:00,54.6,52.9,30.04,NNE,19,0.0,0.0,94,0.00,FEW,,0.00,12.0,WeatherDisplay:10.37,2013-04-10 11:18:00,
2013-04-10 07:23:00,54.9,53.2,30.04,NNE,19,0.0,0.0,94,0.00,FEW,,0.00,16.0,WeatherDisplay:10.37,2013-04-10 11:23:00,
2013-04-10 07:28:00,55.1,53.4,30.04,NNE,19,0.0,0.0,94,0.00,FEW,,0.00,19.0,WeatherDisplay:10.37,2013-04-10 11:28:00,
2013-04-10 07:33:00,55.1,53.4,30.04,NNE,19,0.0,0.0,94,0.00,FEW,,0.00,23.0,WeatherDisplay:10.37,2013-04-10 11:33:00,
2013-04-10 07:38:00,55.1,53.4,30.04,NNE,19,0.0,0.0,94,0.00,FEW,,0.00,26.0,WeatherDisplay:10.37,2013-04-10 11:38:00,
2013-04-10 07:43:00,55.5,53.8,30.04,NNE,19,0.0,0.0,94,0.00,FEW,,0.00,32.0,WeatherDisplay:10.37,2013-04-10 11:43:00,
2013-04-10 07:48:00,56.0,54.6,30.04,NNE,19,0.0,0.0,95,0.00,FEW,,0.00,37.0,WeatherDisplay:10.37,2013-04-10 11:48:00,
2013-04-10 07:53:00,56.5,55.1,30.04,NNE,19,0.0,0.0,95,0.00,FEW,,0.00,40.0,WeatherDisplay:10.37,2013-04-10 11:53:00,
2013-04-10 07:58:00,57.1,55.7,30.04,NNE,19,0.0,0.0,95,0.00,FEW,,0.00,42.0,WeatherDisplay:10.37,2013-04-10 11:58:00,
2013-04-10 08:03:00,57.9,56.5,30.05,NNE,19,0.0,0.0,95,0.00,FEW,,0.00,62.0,WeatherDisplay:10.37,2013-04-10 12:03:00,
2013-04-10 08:08:00,58.4,57.0,30.05,NNE,19,0.0,0.0,95,0.00,FEW,,0.00,65.0,WeatherDisplay:10.37,2013-04-10 12:08:00,
2013-04-10 08:13:00,59.3,57.9,30.05,NNE,19,0.0,0.0,95,0.00,FEW,,0.00,176.0,WeatherDisplay:10.37,2013-04-10 12:13:00,
2013-04-10 08:18:00,60.2,58.8,30.05,NNE,19,0.0,0.0,95,0.00,FEW,,0.00,200.0,WeatherDisplay:10.37,2013-04-10 12:18:00,
2013-04-10 08:23:00,61.1,59.7,30.05,NNE,19,0.0,0.0,95,0.00,FEW,,0.00,221.0,WeatherDisplay:10.37,2013-04-10 12:23:00,
2013-04-10 08:28:00,62.1,60.7,30.05,NNE,19,0.0,0.0,95,0.00,FEW,,0.00,237.0,WeatherDisplay:10.37,2013-04-10 12:28:00,
2013-04-10 08:33:00,63.0,61.5,30.05,NNE,19,0.0,0.0,95,0.00,FEW,,0.00,257.0,WeatherDisplay:10.37,2013-04-10 12:33:00,
2013-04-10 08:38:00,63.9,62.1,30.05,NNE,19,1.4,0.0,94,0.00,FEW,,0.00,271.0,WeatherDisplay:10.37,2013-04-10 12:38:00,
2013-04-10 08:43:00,64.8,63.0,30.05,NNE,19,0.0,0.0,94,0.00,FEW,,0.00,287.0,WeatherDisplay:10.37,2013-04-10 12:43:00,
2013-04-10 08:48:00,65.7,63.6,30.06,NNE,19,0.0,0.0,93,0.00,FEW,,0.00,309.0,WeatherDisplay:10.37,2013-04-10 12:48:00,
2013-04-10 08:53:00,66.7,64.3,30.06,NNE,19,1.1,1.1,92,0.00,FEW,,0.00,329.0,WeatherDisplay:10.37,2013-04-10 12:53:00,
2013-04-10 08:58:00,67.6,64.6,30.06,NNE,19,2.3,2.3,90,0.00,FEW,,0.00,359.0,WeatherDisplay:10.37,2013-04-10 12:58:00,
2013-04-10 09:03:00,68.5,65.1,30.06,NNE,19,1.1,1.1,89,0.00,FEW,,0.00,388.0,WeatherDisplay:10.37,2013-04-10 13:03:00,
2013-04-10 09:08:00,69.4,65.0,30.06,NNE,19,1.1,0.0,86,0.00,FEW,,0.00,417.0,WeatherDisplay:10.37,2013-04-10 13:08:00,
2013-04-10 09:13:00,70.6,65.5,30.06,NNE,20,1.1,1.1,84,0.00,FEW,,0.00,436.0,WeatherDisplay:10.37,2013-04-10 13:13:00,
2013-04-10 09:18:00,71.7,66.3,30.06,NNE,21,1.1,1.1,83,0.00,FEW,,0.00,461.0,WeatherDisplay:10.37,2013-04-10 13:18:00,
2013-04-10 09:23:00,72.1,65.6,30.06,NNE,21,4.6,4.6,80,0.00,FEW,,0.00,538.0,WeatherDisplay:10.37,2013-04-10 13:23:00,
2013-04-10 09:28:00,72.8,65.9,30.06,NNE,23,5.8,5.8,79,0.00,FEW,,0.00,571.0,WeatherDisplay:10.37,2013-04-10 13:28:00,
2013-04-10 09:33:00,73.2,66.3,30.07,NNE,20,2.3,2.3,79,0.00,FEW,,0.00,214.0,WeatherDisplay:10.37,2013-04-10 13:33:00,
2013-04-10 09:38:00,73.4,65.7,30.07,NNE,19,9.2,9.2,77,0.00,FEW,,0.00,239.0,WeatherDisplay:10.37,2013-04-10 13:38:00,
2013-04-10 09:43:00,73.9,65.9,30.07,NNE,19,9.2,9.8,76,0.00,FEW,,0.00,545.0,WeatherDisplay:10.37,2013-04-10 13:43:00,
2013-04-10 09:48:00,74.5,66.8,30.07,NNE,17,8.1,9.8,77,0.00,FEW,,0.00,561.0,WeatherDisplay:10.37,2013-04-10 13:48:00,
2013-04-10 09:53:00,75.1,66.6,30.07,NNE,22,6.9,6.9,75,0.00,FEW,,0.00,578.0,WeatherDisplay:10.37,2013-04-10 13:53:00,
2013-04-10 09:58:00,76.1,67.6,30.07,NNE,19,9.2,9.2,75,0.00,FEW,,0.00,599.0,WeatherDisplay:10.37,2013-04-10 13:58:00,
2013-04-10 10:03:00,76.7,67.8,30.07,NNE,23,8.1,8.1,74,0.00,FEW,,0.00,663.0,WeatherDisplay:10.37,2013-04-10 14:03:00,
2013-04-10 10:08:00,76.9,67.2,30.07,NNE,25,11.0,11.0,72,0.00,FEW,,0.00,677.0,WeatherDisplay:10.37,2013-04-10 14:08:00,
2013-04-10 10:13:00,76.7,67.4,30.07,NNE,20,9.2,9.2,73,0.00,FEW,,0.00,691.0,WeatherDisplay:10.37,2013-04-10 14:13:00,
2013-04-10 10:18:00,77.4,67.7,30.07,NNE,22,6.9,6.9,72,0.00,FEW,,0.00,715.0,WeatherDisplay:10.37,2013-04-10 14:18:00,
2013-04-10 10:23:00,77.7,67.5,30.07,NNE,24,9.2,9.2,71,0.00,FEW,,0.00,817.0,WeatherDisplay:10.37,2013-04-10 14:23:00,
2013-04-10 10:28:00,78.3,67.7,30.07,NNE,24,5.8,5.8,70,0.00,FEW,,0.00,898.0,WeatherDisplay:10.37,2013-04-10 14:28:00,
2013-04-10 10:33:00,79.7,68.6,30.07,NNE,22,12.7,15.4,69,0.00,FEW,,0.00,889.0,WeatherDisplay:10.37,2013-04-10 14:33:00,
2013-04-10 10:38:00,79.8,68.3,30.07,NNE,17,4.6,4.6,68,0.00,FEW,,0.00,803.0,WeatherDisplay:10.37,2013-04-10 14:38:00,
2013-04-10 10:43:00,79.5,66.7,30.07,NNE,23,13.8,13.8,65,0.00,FEW,,0.00,823.0,WeatherDisplay:10.37,2013-04-10 14:43:00,
2013-04-10 10:48:00,79.4,68.3,30.07,NNE,19,8.1,8.1,69,0.00,FEW,,0.00,844.0,WeatherDisplay:10.37,2013-04-10 14:48:00,
2013-04-10 10:53:00,79.5,67.1,30.07,NNE,24,11.0,11.0,66,0.00,FEW,,0.00,791.0,WeatherDisplay:10.37,2013-04-10 14:53:00,
2013-04-10 10:58:00,80.0,68.1,30.07,NNE,24,9.2,9.2,67,0.00,FEW,,0.00,902.0,WeatherDisplay:10.37,2013-04-10 14:58:00,
2013-04-10 11:03:00,79.3,66.1,30.06,NNE,21,8.3,9.2,64,0.00,FEW,,0.00,204.0,WeatherDisplay:10.37,2013-04-10 15:03:00,
2013-04-10 11:09:00,78.5,66.6,30.06,NNE,20,6.9,6.9,67,0.00,FEW,,0.00,385.0,WeatherDisplay:10.37,2013-04-10 15:09:00,
2013-04-10 11:14:00,79.2,66.4,30.06,NNE,17,5.8,5.8,65,0.00,FEW,,0.00,385.0,WeatherDisplay:10.37,2013-04-10 15:14:00,
2013-04-10 11:19:00,79.2,66.9,30.06,NNE,23,8.1,8.1,66,0.00,FEW,,0.00,306.0,WeatherDisplay:10.37,2013-04-10 15:19:00,
2013-04-10 11:24:00,78.5,66.6,30.06,NNE,19,4.6,4.6,67,0.00,FEW,,0.00,410.0,WeatherDisplay:10.37,2013-04-10 15:24:00,
2013-04-10 11:29:00,79.3,67.8,30.06,NNE,16,9.6,9.6,68,0.00,FEW,,0.00,410.0,WeatherDisplay:10.37,2013-04-10 15:29:00,
2013-04-10 11:34:00,80.6,69.5,30.06,NNE,17,9.6,9.6,69,0.00,FEW,,0.00,995.0,WeatherDisplay:10.37,2013-04-10 15:34:00,
2013-04-10 11:39:00,82.2,67.9,30.06,NNE,18,9.2,9.2,62,0.00,FEW,,0.00,935.0,WeatherDisplay:10.37,2013-04-10 15:39:00,
2013-04-10 11:44:00,82.1,67.3,30.06,NNE,21,5.8,5.8,61,0.00,FEW,,0.00,995.0,WeatherDisplay:10.37,2013-04-10 15:44:00,
2013-04-10 11:49:00,81.7,66.0,30.06,NNE,18,9.2,9.2,59,0.00,FEW,,0.00,995.0,WeatherDisplay:10.37,2013-04-10 15:49:00,
2013-04-10 11:54:00,80.4,66.6,30.06,NNE,22,12.7,12.7,63,0.00,FEW,,0.00,378.0,WeatherDisplay:10.37,2013-04-10 15:54:00,
2013-04-10 11:59:00,81.0,67.2,30.06,NNE,18,5.8,5.8,63,0.00,FEW,,0.00,327.0,WeatherDisplay:10.37,2013-04-10 15:59:00,
2013-04-10 12:04:00,79.9,67.1,30.06,NNE,19,8.1,8.1,65,0.00,BKN,,0.00,345.0,WeatherDisplay:10.37,2013-04-10 16:04:00,
2013-04-10 12:09:00,79.4,66.6,30.06,NNE,21,5.8,5.8,65,0.00,BKN,,0.00,427.0,WeatherDisplay:10.37,2013-04-10 16:09:00,
2013-04-10 12:14:00,81.3,68.0,30.06,NNE,18,4.6,4.6,64,0.00,BKN,,0.00,438.0,WeatherDisplay:10.37,2013-04-10 16:14:00,
2013-04-10 12:19:00,82.0,67.7,30.06,NNE,19,9.2,9.2,62,0.00,BKN,,0.00,315.0,WeatherDisplay:10.37,2013-04-10 16:19:00,
2013-04-10 12:24:00,81.2,66.9,30.06,NNE,19,9.2,9.5,62,0.00,BKN,,0.00,299.0,WeatherDisplay:10.37,2013-04-10 16:24:00,
2013-04-10 12:29:00,80.0,65.8,30.06,NNE,22,11.5,11.5,62,0.00,BKN,,0.00,404.0,WeatherDisplay:10.37,2013-04-10 16:29:00,
2013-04-10 12:35:00,82.0,67.7,30.06,NNE,18,9.2,9.5,62,0.00,BKN,,0.00,366.0,WeatherDisplay:10.37,2013-04-10 16:35:00,
2013-04-10 12:40:00,81.8,67.0,30.06,NNE,15,8.1,8.1,61,0.00,BKN,,0.00,301.0,WeatherDisplay:10.37,2013-04-10 16:40:00,
2013-04-10 12:45:00,80.9,66.7,30.05,NNE,23,11.5,11.5,62,0.00,BKN,,0.00,267.0,WeatherDisplay:10.37,2013-04-10 16:45:00,
2013-04-10 12:50:00,80.1,65.9,30.05,NNE,20,8.1,8.1,62,0.00,BKN,,0.00,323.0,WeatherDisplay:10.37,2013-04-10 16:50:00,
2013-04-10 12:55:00,79.8,66.1,30.05,NNE,19,11.5,11.5,63,0.00,BKN,,0.00,265.0,WeatherDisplay:10.37,2013-04-10 16:55:00,
2013-04-10 13:00:00,79.4,66.6,30.04,NNE,16,9.2,9.2,65,0.00,BKN,,0.00,223.0,WeatherDisplay:10.37,2013-04-10 17:00:00,
2013-04-10 13:05:00,79.2,66.9,30.04,NNE,23,5.8,5.8,66,0.00,BKN,,0.00,346.0,WeatherDisplay:10.37,2013-04-10 17:05:00,
2013-04-10 13:10:00,79.5,67.1,30.04,NNE,23,15.0,15.0,66,0.00,BKN,,0.00,304.0,WeatherDisplay:10.37,2013-04-10 17:10:00,
2013-04-10 13:15:00,79.4,66.2,30.04,NNE,20,12.7,12.7,64,0.00,BKN,,0.00,387.0,WeatherDisplay:10.37,2013-04-10 17:15:00,
2013-04-10 13:20:00,80.3,67.0,30.04,NNE,22,12.7,12.7,64,0.00,BKN,,0.00,420.0,WeatherDisplay:10.37,2013-04-10 17:20:00,
2013-04-10 13:25:00,80.0,66.7,30.04,NNE,24,9.2,9.2,64,0.00,BKN,,0.00,369.0,WeatherDisplay:10.37,2013-04-10 17:25:00,
2013-04-10 13:30:00,80.0,66.7,30.04,NNE,22,6.9,7.5,64,0.00,BKN,,0.00,257.0,WeatherDisplay:10.37,2013-04-10 17:30:00,
2013-04-10 13:35:00,80.0,67.2,30.04,NNE,17,6.9,6.9,65,0.00,BKN,,0.00,350.0,WeatherDisplay:10.37,2013-04-10 17:35:00,
2013-04-10 13:40:00,79.9,66.6,30.04,NNE,20,9.2,9.2,64,0.00,BKN,,0.00,466.0,WeatherDisplay:10.37,2013-04-10 17:40:00,
2013-04-10 13:45:00,80.2,66.9,30.04,NNE,18,9.2,10.4,64,0.00,BKN,,0.00,350.0,WeatherDisplay:10.37,2013-04-10 17:45:00,
2013-04-10 13:50:00,81.0,67.7,30.04,NNE,18,9.2,9.2,64,0.00,BKN,,0.00,371.0,WeatherDisplay:10.37,2013-04-10 17:50:00,
2013-04-10 13:55:00,80.6,66.8,30.04,NNE,19,11.5,11.5,63,0.00,BKN,,0.00,330.0,WeatherDisplay:10.37,2013-04-10 17:55:00,
2013-04-10 14:00:00,80.1,67.3,30.03,NNE,16,12.7,12.7,65,0.00,BKN,,0.00,355.0,WeatherDisplay:10.37,2013-04-10 18:00:00,
2013-04-10 14:05:00,81.2,67.9,30.03,NNE,17,13.8,13.8,64,0.00,BKN,,0.00,1162.0,WeatherDisplay:10.37,2013-04-10 18:05:00,
2013-04-10 14:10:00,80.9,67.1,30.03,NNE,18,13.8,13.8,63,0.00,BKN,,0.00,397.0,WeatherDisplay:10.37,2013-04-10 18:10:00,
2013-04-10 14:15:00,81.1,67.3,30.03,NNE,14,11.5,11.5,63,0.00,BKN,,0.00,396.0,WeatherDisplay:10.37,2013-04-10 18:15:00,
2013-04-10 14:20:00,82.1,68.3,30.03,NNE,19,11.5,11.8,63,0.00,BKN,,0.00,1127.0,WeatherDisplay:10.37,2013-04-10 18:20:00,
2013-04-10 14:25:00,82.2,66.4,30.03,NNE,17,12.7,12.7,59,0.00,BKN,,0.00,281.0,WeatherDisplay:10.37,2013-04-10 18:25:00,
2013-04-10 14:30:00,81.8,67.0,30.02,NNE,18,8.1,8.1,61,0.00,BKN,,0.00,313.0,WeatherDisplay:10.37,2013-04-10 18:30:00,
2013-04-10 14:35:00,81.8,66.6,30.02,NNE,17,15.0,15.0,60,0.00,BKN,,0.00,1132.0,WeatherDisplay:10.37,2013-04-10 18:35:00,
2013-04-10 14:40:00,83.4,68.1,30.02,NNE,19,13.8,13.8,60,0.00,BKN,,0.00,1055.0,WeatherDisplay:10.37,2013-04-10 18:40:00,
2013-04-10 14:45:00,83.3,66.5,30.02,NNE,19,18.4,18.4,57,0.00,BKN,,0.00,1025.0,WeatherDisplay:10.37,2013-04-10 18:45:00,
2013-04-10 14:50:00,83.2,67.9,30.02,NNE,24,15.1,15.1,60,0.00,BKN,,0.00,1065.0,WeatherDisplay:10.37,2013-04-10 18:50:00,
2013-04-10 14:55:00,82.3,66.0,30.02,NNE,19,13.8,13.8,58,0.00,BKN,,0.00,345.0,WeatherDisplay:10.37,2013-04-10 18:55:00,
2013-04-10 15:00:00,83.0,66.7,30.01,NNE,17,15.0,15.0,58,0.00,BKN,,0.00,1095.0,WeatherDisplay:10.37,2013-04-10 19:00:00,
2013-04-10 15:05:00,82.8,67.0,30.01,NNE,17,13.8,13.8,59,0.00,BKN,,0.00,364.0,WeatherDisplay:10.37,2013-04-10 19:05:00,
2013-04-10 15:10:00,81.7,66.9,30.01,NNE,20,12.7,13.5,61,0.00,BKN,,0.00,360.0,WeatherDisplay:10.37,2013-04-10 19:10:00,
2013-04-10 15:15:00,80.5,66.3,30.01,NNE,15,9.2,9.2,62,0.00,BKN,,0.00,295.0,WeatherDisplay:10.37,2013-04-10 19:15:00,
2013-04-10 15:20:00,79.8,66.1,30.01,NNE,19,11.5,11.5,63,0.00,BKN,,0.00,355.0,WeatherDisplay:10.37,2013-04-10 19:20:00,
2013-04-10 15:25:00,81.5,68.1,30.01,NNE,20,13.8,13.8,64,0.00,BKN,,0.00,1102.0,WeatherDisplay:10.37,2013-04-10 19:25:00,
2013-04-10 15:30:00,81.5,66.8,30.00,NNE,18,12.7,12.7,61,0.00,BKN,,0.00,427.0,WeatherDisplay:10.37,2013-04-10 19:30:00,
2013-04-10 15:35:00,81.2,66.9,30.00,NNE,17,13.8,13.8,62,0.00,BKN,,0.00,468.0,WeatherDisplay:10.37,2013-04-10 19:35:00,
2013-04-10 15:40:00,81.1,66.8,30.00,NNE,18,19.6,19.6,62,0.00,BKN,,0.00,501.0,WeatherDisplay:10.37,2013-04-10 19:40:00,
2013-04-10 15:45:00,82.4,68.1,29.99,NNE,18,15.0,16.6,62,0.00,BKN,,0.00,751.0,WeatherDisplay:10.37,2013-04-10 19:45:00,
2013-04-10 15:50:00,82.5,66.2,29.99,NNE,24,9.6,9.6,58,0.00,BKN,,0.00,578.0,WeatherDisplay:10.37,2013-04-10 19:50:00,
2013-04-10 15:55:00,81.8,66.1,29.99,NNE,15,11.5,11.5,59,0.00,BKN,,0.00,397.0,WeatherDisplay:10.37,2013-04-10 19:55:00,
2013-04-10 16:00:00,81.1,66.8,29.99,NNE,17,11.5,11.5,62,0.00,BKN,,0.00,378.0,WeatherDisplay:10.37,2013-04-10 20:00:00,
2013-04-10 16:05:00,80.7,66.0,29.99,NNE,24,16.1,16.1,61,0.00,BKN,,0.00,394.0,WeatherDisplay:10.37,2013-04-10 20:05:00,
2013-04-10 16:10:00,80.6,66.8,29.99,NNE,16,16.1,16.1,63,0.00,BKN,,0.00,334.0,WeatherDisplay:10.37,2013-04-10 20:10:00,
2013-04-10 16:15:00,80.5,65.8,29.99,NNE,21,18.4,18.4,61,0.00,BKN,,0.00,334.0,WeatherDisplay:10.37,2013-04-10 20:15:00,
2013-04-10 16:20:00,79.8,65.6,29.99,NNE,17,21.9,21.9,62,0.00,BKN,,0.00,255.0,WeatherDisplay:10.37,2013-04-10 20:20:00,
2013-04-10 16:25:00,79.7,65.5,29.99,NNE,24,12.7,12.7,62,0.00,BKN,,0.00,178.0,WeatherDisplay:10.37,2013-04-10 20:25:00,
2013-04-10 16:30:00,79.4,66.2,29.98,NNE,22,15.0,15.0,64,0.00,BKN,,0.00,216.0,WeatherDisplay:10.37,2013-04-10 20:30:00,
2013-04-10 16:35:00,79.3,65.6,29.98,NNE,17,12.7,12.7,63,0.00,BKN,,0.00,185.0,WeatherDisplay:10.37,2013-04-10 20:35:00,
2013-04-10 16:41:00,79.0,65.8,29.98,NNE,19,11.5,11.5,64,0.00,BKN,,0.00,190.0,WeatherDisplay:10.37,2013-04-10 20:41:00,
2013-04-10 16:46:00,78.8,66.0,29.98,NNE,16,20.7,20.7,65,0.00,BKN,,0.00,195.0,WeatherDisplay:10.37,2013-04-10 20:46:00,
2013-04-10 16:51:00,79.1,66.3,29.98,NNE,20,13.7,13.7,65,0.00,BKN,,0.00,253.0,WeatherDisplay:10.37,2013-04-10 20:51:00,
2013-04-10 16:56:00,79.4,66.2,29.98,NNE,17,15.0,15.0,64,0.00,BKN,,0.00,183.0,WeatherDisplay:10.37,2013-04-10 20:56:00,
2013-04-10 17:01:00,79.4,66.2,29.98,NNE,18,18.4,18.4,64,0.00,BKN,,0.00,111.0,WeatherDisplay:10.37,2013-04-10 21:01:00,
2013-04-10 17:06:00,79.0,65.8,29.98,NNE,19,15.0,16.6,64,0.00,BKN,,0.00,394.0,WeatherDisplay:10.37,2013-04-10 21:06:00,
2013-04-10 17:11:00,79.1,65.9,29.98,NNE,19,12.7,12.7,64,0.00,BKN,,0.00,374.0,WeatherDisplay:10.37,2013-04-10 21:11:00,
2013-04-10 17:16:00,79.2,65.5,29.98,NNE,19,11.5,13.2,63,0.00,BKN,,0.00,91.0,WeatherDisplay:10.37,2013-04-10 21:16:00,
2013-04-10 17:21:00,78.9,65.2,29.98,NNE,19,13.8,15.5,63,0.00,BKN,,0.00,91.0,WeatherDisplay:10.37,2013-04-10 21:21:00,
2013-04-10 17:26:00,78.7,65.5,29.98,NNE,18,11.0,12.4,64,0.00,BKN,,0.00,77.0,WeatherDisplay:10.37,2013-04-10 21:26:00,
2013-04-10 17:32:00,78.5,64.9,29.98,NNE,19,13.8,13.8,63,0.00,BKN,,0.00,102.0,WeatherDisplay:10.37,2013-04-10 21:32:00,
2013-04-10 17:37:00,78.5,65.3,29.98,NNE,23,11.5,12.9,64,0.00,BKN,,0.00,116.0,WeatherDisplay:10.37,2013-04-10 21:37:00,
2013-04-10 17:42:00,78.6,65.4,29.98,NNE,20,11.5,11.5,64,0.00,BKN,,0.00,153.0,WeatherDisplay:10.37,2013-04-10 21:42:00,
2013-04-10 17:47:00,78.5,65.3,29.98,NNE,20,8.1,8.1,64,0.00,BKN,,0.00,146.0,WeatherDisplay:10.37,2013-04-10 21:47:00,
2013-04-10 17:52:00,78.4,65.2,29.98,NNE,18,15.0,15.0,64,0.00,BKN,,0.00,105.0,WeatherDisplay:10.37,2013-04-10 21:52:00,
2013-04-10 17:57:00,78.0,64.8,29.98,NNE,20,13.8,13.8,64,0.00,BKN,,0.00,95.0,WeatherDisplay:10.37,2013-04-10 21:57:00,
2013-04-10 18:02:00,77.7,65.0,29.97,NNE,22,8.1,8.1,65,0.00,BKN,,0.00,54.0,WeatherDisplay:10.37,2013-04-10 22:02:00,
2013-04-10 18:07:00,77.8,65.5,29.97,NNE,19,4.6,4.6,66,0.00,BKN,,0.00,49.0,WeatherDisplay:10.37,2013-04-10 22:07:00,
2013-04-10 18:12:00,77.9,65.2,29.97,NNE,18,9.6,9.9,65,0.00,BKN,,0.00,47.0,WeatherDisplay:10.37,2013-04-10 22:12:00,
2013-04-10 18:17:00,77.3,65.1,29.96,NNE,19,12.7,12.7,66,0.00,SCT,,0.00,46.0,WeatherDisplay:10.37,2013-04-10 22:17:00,
2013-04-10 18:22:00,77.0,64.8,29.96,NNE,17,12.7,12.7,66,0.00,SCT,,0.00,44.0,WeatherDisplay:10.37,2013-04-10 22:22:00,
2013-04-10 18:27:00,76.7,64.0,29.96,NNE,19,11.5,11.6,65,0.00,SCT,,0.00,42.0,WeatherDisplay:10.37,2013-04-10 22:27:00,
2013-04-10 18:32:00,76.6,64.0,29.96,NNE,24,13.8,13.8,65,0.00,SCT,,0.00,39.0,WeatherDisplay:10.37,2013-04-10 22:32:00,
2013-04-10 18:37:00,76.5,63.9,29.96,NNE,24,11.5,11.5,65,0.00,SCT,,0.00,37.0,WeatherDisplay:10.37,2013-04-10 22:37:00,
2013-04-10 18:42:00,76.3,64.1,29.96,NNE,19,12.7,12.7,66,0.00,SCT,,0.00,37.0,WeatherDisplay:10.37,2013-04-10 22:42:00,
2013-04-10 18:47:00,76.1,64.8,29.97,NNE,18,12.7,12.7,68,0.00,SCT,,0.00,35.0,WeatherDisplay:10.37,2013-04-10 22:47:00,
2013-04-10 18:52:00,75.7,64.4,29.97,NNE,17,6.9,6.9,68,0.00,SCT,,0.00,33.0,WeatherDisplay:10.37,2013-04-10 22:52:00,
2013-04-10 18:57:00,75.5,64.6,29.97,NNE,19,6.9,6.9,69,0.00,SCT,,0.00,32.0,WeatherDisplay:10.37,2013-04-10 22:57:00,
2013-04-10 19:02:00,75.4,64.9,29.97,NNE,17,12.4,12.4,70,0.00,SCT,,0.00,30.0,WeatherDisplay:10.37,2013-04-10 23:02:00,
2013-04-10 19:07:00,75.1,65.1,29.97,NNE,19,9.2,9.2,71,0.00,SCT,,0.00,28.0,WeatherDisplay:10.37,2013-04-10 23:07:00,
2013-04-10 19:12:00,74.8,65.2,29.97,NNE,19,12.7,12.7,72,0.00,SCT,,0.00,25.0,WeatherDisplay:10.37,2013-04-10 23:12:00,
2013-04-10 19:17:00,74.5,64.9,29.97,NNE,19,16.1,16.1,72,0.00,SCT,,0.00,23.0,WeatherDisplay:10.37,2013-04-10 23:17:00,
2013-04-10 19:22:00,74.4,65.2,29.97,NNE,20,5.8,5.8,73,0.00,SCT,,0.00,21.0,WeatherDisplay:10.37,2013-04-10 23:22:00,
2013-04-10 19:27:00,74.2,65.4,29.97,NNE,18,8.1,8.1,74,0.00,SCT,,0.00,18.0,WeatherDisplay:10.37,2013-04-10 23:27:00,
2013-04-10 19:32:00,74.0,65.2,29.96,NNE,17,11.5,11.5,74,0.00,SCT,,0.00,14.0,WeatherDisplay:10.37,2013-04-10 23:32:00,
2013-04-10 19:37:00,73.7,65.3,29.96,NNE,17,4.6,4.6,75,0.00,SCT,,0.00,12.0,WeatherDisplay:10.37,2013-04-10 23:37:00,
2013-04-10 19:42:00,73.5,65.5,29.96,NNE,18,9.2,9.2,76,0.00,SCT,,0.00,9.0,WeatherDisplay:10.37,2013-04-10 23:42:00,
2013-04-10 19:47:00,73.3,65.3,29.97,NNE,19,13.8,13.8,76,0.00,SCT,,0.00,5.0,WeatherDisplay:10.37,2013-04-10 23:47:00,
2013-04-10 19:52:00,73.2,65.6,29.97,NNE,18,15.0,15.0,77,0.00,SCT,,0.00,0.0,WeatherDisplay:10.37,2013-04-10 23:52:00,
2013-04-10 19:57:00,72.9,65.3,29.97,NNE,15,8.1,8.1,77,0.00,SCT,,0.00,0.0,WeatherDisplay:10.37,2013-04-10 23:57:00,
2013-04-10 20:02:00,72.8,65.5,29.96,NNE,17,6.9,6.9,78,0.00,SCT,,0.00,0.0,WeatherDisplay:10.37,2013-04-11 00:02:00,
2013-04-10 20:07:00,72.6,65.3,29.96,NNE,16,6.9,6.9,78,0.00,SCT,,0.00,0.0,WeatherDisplay:10.37,2013-04-11 00:07:00,
2013-04-10 20:12:00,72.4,65.5,29.96,NNE,19,9.2,9.2,79,0.00,SCT,,0.00,0.0,WeatherDisplay:10.37,2013-04-11 00:12:00,
2013-04-10 20:18:00,72.1,65.2,29.96,NNE,20,5.8,5.8,79,0.00,SCT,,0.00,0.0,WeatherDisplay:10.37,2013-04-11 00:18:00,
2013-04-10 20:23:00,72.0,65.5,29.96,NNE,17,4.6,4.6,80,0.00,SCT,,0.00,0.0,WeatherDisplay:10.37,2013-04-11 00:23:00,
2013-04-10 20:28:00,71.9,65.4,29.96,NNE,17,2.3,2.3,80,0.00,SCT,,0.00,0.0,WeatherDisplay:10.37,2013-04-11 00:28:00,
2013-04-10 20:33:00,71.6,65.5,29.96,NNE,18,5.8,5.8,81,0.00,SCT,,0.00,0.0,WeatherDisplay:10.37,2013-04-11 00:33:00,
2013-04-10 20:38:00,71.5,65.4,29.96,NNE,18,5.8,5.8,81,0.00,SCT,,0.00,0.0,WeatherDisplay:10.37,2013-04-11 00:38:00,
2013-04-10 20:43:00,71.3,65.5,29.96,NNE,18,6.9,6.9,82,0.00,SCT,,0.00,0.0,WeatherDisplay:10.37,2013-04-11 00:43:00,
2013-04-10 20:48:00,71.1,65.3,29.96,NNE,19,6.9,6.9,82,0.00,SCT,,0.00,0.0,WeatherDisplay:10.37,2013-04-11 00:48:00,
2013-04-10 20:53:00,71.0,65.2,29.96,NNE,19,1.1,1.1,82,0.00,SCT,,0.00,0.0,WeatherDisplay:10.37,2013-04-11 00:53:00,
2013-04-10 20:58:00,70.8,65.4,29.96,NNE,19,2.3,2.3,83,0.00,SCT,,0.00,0.0,WeatherDisplay:10.37,2013-04-11 00:58:00,
2013-04-10 21:03:00,70.6,65.5,29.96,NNE,19,2.3,2.3,84,0.00,SCT,,0.00,0.0,WeatherDisplay:10.37,2013-04-11 01:03:00,
2013-04-10 21:08:00,70.5,65.4,29.96,NNE,19,5.8,5.8,84,0.00,SCT,,0.00,0.0,WeatherDisplay:10.37,2013-04-11 01:08:00,
2013-04-10 21:13:00,70.5,65.4,29.96,NNE,19,5.8,5.8,84,0.00,SCT,,0.00,0.0,WeatherDisplay:10.37,2013-04-11 01:13:00,
2013-04-10 21:18:00,70.3,65.6,29.96,NNE,17,5.5,5.5,85,0.00,SCT,,0.00,0.0,WeatherDisplay:10.37,2013-04-11 01:18:00,
2013-04-10 21:23:00,70.2,65.5,29.96,NNE,17,2.3,2.3,85,0.00,SCT,,0.00,0.0,WeatherDisplay:10.37,2013-04-11 01:23:00,
2013-04-10 21:28:00,70.2,65.5,29.96,NNE,17,4.6,4.6,85,0.00,SCT,,0.00,0.0,WeatherDisplay:10.37,2013-04-11 01:28:00,
2013-04-10 21:33:00,70.0,65.6,29.96,NNE,17,4.6,4.6,86,0.00,SCT,,0.00,0.0,WeatherDisplay:10.37,2013-04-11 01:33:00,
2013-04-10 21:38:00,69.9,65.5,29.96,NNE,17,2.3,2.3,86,0.00,SCT,,0.00,0.0,WeatherDisplay:10.37,2013-04-11 01:38:00,
2013-04-10 21:43:00,69.9,65.5,29.96,NNE,17,4.6,4.6,86,0.00,SCT,,0.00,0.0,WeatherDisplay:10.37,2013-04-11 01:43:00,
2013-04-10 21:48:00,69.8,65.4,29.96,NNE,18,2.8,3.7,86,0.00,SCT,,0.00,0.0,WeatherDisplay:10.37,2013-04-11 01:48:00,
2013-04-10 21:53:00,69.7,65.7,29.96,NNE,19,4.6,4.6,87,0.00,SCT,,0.00,0.0,WeatherDisplay:10.37,2013-04-11 01:53:00,
2013-04-10 21:58:00,69.7,65.7,29.96,NNE,20,4.6,4.6,87,0.00,SCT,,0.00,0.0,WeatherDisplay:10.37,2013-04-11 01:58:00,
2013-04-10 22:03:00,69.7,65.7,29.96,NNE,20,1.4,1.4,87,0.00,SCT,,0.00,0.0,WeatherDisplay:10.37,2013-04-11 02:03:00,
2013-04-10 22:08:00,69.7,66.0,29.96,NNE,19,5.8,5.8,88,0.00,SCT,,0.00,0.0,WeatherDisplay:10.37,2013-04-11 02:08:00,
2013-04-10 22:13:00,69.5,65.8,29.96,NNE,19,1.1,1.1,88,0.00,SCT,,0.00,0.0,WeatherDisplay:10.37,2013-04-11 02:13:00,
2013-04-10 22:18:00,69.5,65.8,29.96,NNE,18,5.8,5.8,88,0.00,FEW,,0.00,0.0,WeatherDisplay:10.37,2013-04-11 02:18:00,
2013-04-10 22:23:00,69.6,66.2,29.96,NNE,18,4.6,4.6,89,0.00,FEW,,0.00,0.0,WeatherDisplay:10.37,2013-04-11 02:23:00,
2013-04-10 22:28:00,69.6,66.2,29.96,NNE,18,2.3,2.3,89,0.00,FEW,,0.00,0.0,WeatherDisplay:10.37,2013-04-11 02:28:00,
2013-04-10 22:33:00,69.6,66.2,29.96,NNE,18,4.6,4.6,89,0.00,FEW,,0.00,0.0,WeatherDisplay:10.37,2013-04-11 02:33:00,
2013-04-10 22:38:00,69.5,66.1,29.96,NNE,18,0.0,0.0,89,0.00,FEW,,0.00,0.0,WeatherDisplay:10.37,2013-04-11 02:38:00,
2013-04-10 22:43:00,69.4,66.0,29.96,NNE,19,1.4,1.4,89,0.00,FEW,,0.00,0.0,WeatherDisplay:10.37,2013-04-11 02:43:00,
2013-04-10 22:48:00,69.5,66.1,29.97,NNE,22,4.6,4.6,89,0.00,FEW,,0.00,0.0,WeatherDisplay:10.37,2013-04-11 02:48:00,
2013-04-10 22:53:00,69.4,66.0,29.97,NNE,21,5.8,5.8,89,0.00,FEW,,0.00,0.0,WeatherDisplay:10.37,2013-04-11 02:53:00,
2013-04-10 22:58:00,69.4,66.0,29.97,NNE,22,6.9,6.9,89,0.00,FEW,,0.00,0.0,WeatherDisplay:10.37,2013-04-11 02:58:00,
2013-04-10 23:03:00,69.4,66.0,29.96,NNE,22,2.3,2.3,89,0.00,CLR,,0.00,0.0,WeatherDisplay:10.37,2013-04-11 03:03:00,
2013-04-10 23:08:00,69.4,66.0,29.96,NNE,20,5.8,5.8,89,0.00,CLR,,0.00,0.0,WeatherDisplay:10.37,2013-04-11 03:08:00,
2013-04-10 23:13:00,69.3,65.9,29.96,NNE,20,2.3,2.3,89,0.00,CLR,,0.00,0.0,WeatherDisplay:10.37,2013-04-11 03:13:00,
2013-04-10 23:18:00,69.2,66.1,29.96,NNE,22,4.6,4.6,90,0.00,CLR,,0.00,0.0,WeatherDisplay:10.37,2013-04-11 03:18:00,
2013-04-10 23:23:00,69.2,66.1,29.96,NNE,22,1.4,1.4,90,0.00,CLR,,0.00,0.0,WeatherDisplay:10.37,2013-04-11 03:23:00,
2013-04-10 23:28:00,69.1,66.0,29.96,NNE,22,5.8,5.8,90,0.00,CLR,,0.00,0.0,WeatherDisplay:10.37,2013-04-11 03:28:00,
2013-04-10 23:33:00,69.0,65.9,29.96,NNE,22,5.8,5.8,90,0.00,CLR,,0.00,0.0,WeatherDisplay:10.37,2013-04-11 03:33:00,
2013-04-10 23:38:00,68.9,65.8,29.96,NNE,22,1.1,0.0,90,0.00,CLR,,0.00,0.0,WeatherDisplay:10.37,2013-04-11 03:38:00,
2013-04-10 23:43:00,68.8,65.7,29.96,NNE,22,1.1,0.0,90,0.00,CLR,,0.00,0.0,WeatherDisplay:10.37,2013-04-11 03:43:00,
2013-04-10 23:49:00,68.8,65.7,29.96,NNE,23,0.0,0.0,90,0.00,CLR,,0.00,0.0,WeatherDisplay:10.37,2013-04-11 03:49:00,
2013-04-10 23:54:00,68.6,65.5,29.96,NNE,23,2.3,2.3,90,0.00,CLR,,0.00,0.0,WeatherDisplay:10.37,2013-04-11 03:54:00,
2013-04-10 23:59:00,68.5,65.8,29.96,NNE,23,0.0,0.0,91,0.00,CLR,,0.00,0.0,WeatherDisplay:10.37,2013-04-11 03:59:00,